• en Suisse
  • Liste des pays
  • À 7 jours
  • Température de l'eau
  • Carte satellitaire
  • Carte météo
  • Widgets météo
  • user-avatar
    Se connecter

    Météo par heure à Preston

    Ce jour, 15 Août, Mercredi

    Heure Température Précipitation Vent Pression Humidité
    00:00 +17°C° 0 mm 5 m/s 758 mmHg 89%
    01:00 +16°C° 0 mm 5 m/s 758 mmHg 90%
    02:00 +16°C° 0 mm 5 m/s 758 mmHg 90%
    03:00 +16°C° 0 mm 5 m/s 758 mmHg 91%
    04:00 +16°C° 0,1 mm 5 m/s 758 mmHg 91%
    05:00 +16°C° 0,1 mm 5 m/s 758 mmHg 90%
    06:00 +16°C° 0 mm 5 m/s 757 mmHg 90%
    07:00 +17°C° 0 mm 5 m/s 757 mmHg 87%
    08:00 +19°C° 0 mm 6 m/s 757 mmHg 84%
    09:00 +20°C° 0 mm 6 m/s 757 mmHg 81%
    10:00 +20°C° 0 mm 6 m/s 757 mmHg 80%
    11:00 +21°C° 0 mm 7 m/s 757 mmHg 79%
    12:00 +21°C° 0 mm 6 m/s 756 mmHg 78%
    13:00 +21°C° 0,1 mm 7 m/s 756 mmHg 79%
    14:00 +21°C° 0,1 mm 7 m/s 756 mmHg 79%
    15:00 +21°C° 0,1 mm 8 m/s 755 mmHg 80%
    16:00 +20°C° 0,6 mm 7 m/s 755 mmHg 82%
    17:00 +20°C° 0,6 mm 7 m/s 755 mmHg 84%
    18:00 +20°C° 0,6 mm 7 m/s 755 mmHg 86%
    19:00 +18°C° 0,7 mm 7 m/s 755 mmHg 87%
    20:00 +18°C° 0,7 mm 7 m/s 755 mmHg 88%
    21:00 +19°C° 0,7 mm 6 m/s 755 mmHg 90%
    22:00 +19°C° 0,5 mm 6 m/s 754 mmHg 90%
    23:00 +19°C° 0,5 mm 6 m/s 754 mmHg 90%

    Demain, 16 Août, Jeudi

    Heure Température Précipitation Vent Pression Humidité
    00:00 +19°C° 0,5 mm 5 m/s 754 mmHg 90%
    01:00 +17°C° 0,8 mm 6 m/s 754 mmHg 90%
    02:00 +17°C° 0,8 mm 6 m/s 754 mmHg 89%
    03:00 +16°C° 0,8 mm 6 m/s 753 mmHg 88%
    04:00 +16°C° 0,2 mm 6 m/s 753 mmHg 87%
    05:00 +15°C° 0,2 mm 5 m/s 754 mmHg 87%
    06:00 +15°C° 0,2 mm 5 m/s 754 mmHg 86%
    07:00 +15°C° 0 mm 6 m/s 754 mmHg 83%
    08:00 +15°C° 0 mm 6 m/s 754 mmHg 79%
    09:00 +15°C° 0 mm 6 m/s 754 mmHg 75%
    10:00 +16°C° 0,1 mm 6 m/s 754 mmHg 72%
    11:00 +16°C° 0,1 mm 7 m/s 755 mmHg 70%
    12:00 +17°C° 0,1 mm 7 m/s 755 mmHg 67%
    13:00 +17°C° 0,2 mm 7 m/s 755 mmHg 66%
    14:00 +17°C° 0,2 mm 7 m/s 755 mmHg 66%
    15:00 +18°C° 0,2 mm 7 m/s 755 mmHg 66%
    16:00 +17°C° 0,1 mm 7 m/s 755 mmHg 68%
    17:00 +17°C° 0,1 mm 7 m/s 755 mmHg 70%
    18:00 +16°C° 0,1 mm 6 m/s 756 mmHg 72%
    19:00 +16°C° 0,1 mm 6 m/s 756 mmHg 75%
    20:00 +15°C° 0,1 mm 5 m/s 757 mmHg 78%
    21:00 +14°C° 0,1 mm 5 m/s 757 mmHg 81%
    22:00 +14°C° 0,1 mm 5 m/s 758 mmHg 82%
    23:00 +13°C° 0,1 mm 5 m/s 758 mmHg 84%

    Après-demain, 17 Août, Vendredi

    Heure Température Précipitation Vent Pression Humidité
    00:00 +13°C° 0,1 mm 5 m/s 758 mmHg 85%
    01:00 +13°C° 0 mm 4 m/s 758 mmHg 85%
    02:00 +13°C° 0 mm 4 m/s 759 mmHg 86%
    03:00 +12°C° 0 mm 4 m/s 759 mmHg 87%
    04:00 +12°C° 0,1 mm 5 m/s 759 mmHg 87%
    05:00 +12°C° 0,1 mm 5 m/s 759 mmHg 87%
    06:00 +13°C° 0,1 mm 5 m/s 759 mmHg 88%
    07:00 +13°C° 0 mm 5 m/s 760 mmHg 83%
    08:00 +14°C° 0 mm 5 m/s 760 mmHg 78%
    09:00 +15°C° 0 mm 6 m/s 760 mmHg 74%
    10:00 +15°C° 0 mm 6 m/s 760 mmHg 71%
    11:00 +16°C° 0 mm 6 m/s 760 mmHg 69%
    12:00 +17°C° 0 mm 6 m/s 760 mmHg 67%
    13:00 +16°C° 0 mm 6 m/s 760 mmHg 68%
    14:00 +16°C° 0 mm 6 m/s 760 mmHg 70%
    15:00 +16°C° 0 mm 6 m/s 759 mmHg 72%
    16:00 +16°C° 0,1 mm 6 m/s 759 mmHg 75%
    17:00 +16°C° 0,1 mm 6 m/s 759 mmHg 78%
    18:00 +16°C° 0,1 mm 6 m/s 759 mmHg 81%
    19:00 +16°C° 0,2 mm 6 m/s 759 mmHg 83%
    20:00 +16°C° 0,2 mm 6 m/s 759 mmHg 85%
    21:00 +16°C° 0,2 mm 7 m/s 759 mmHg 87%
    22:00 +16°C° 0,3 mm 7 m/s 759 mmHg 88%
    23:00 +16°C° 0,3 mm 7 m/s 759 mmHg 89%

    18 Août, Samedi

    Heure Température Précipitation Vent Pression Humidité
    00:00 +16°C° 0,3 mm 7 m/s 758 mmHg 89%
    01:00 +16°C° 0,1 mm 7 m/s 758 mmHg 90%
    02:00 +16°C° 0,1 mm 7 m/s 758 mmHg 90%
    03:00 +16°C° 0,1 mm 7 m/s 758 mmHg 90%
    04:00 +16°C° 0,2 mm 6 m/s 758 mmHg 90%
    05:00 +16°C° 0,2 mm 6 m/s 758 mmHg 90%
    06:00 +16°C° 0,2 mm 6 m/s 758 mmHg 91%
    07:00 +16°C° 0,1 mm 6 m/s 759 mmHg 89%
    08:00 +17°C° 0,1 mm 6 m/s 759 mmHg 87%
    09:00 +17°C° 0,1 mm 6 m/s 760 mmHg 86%
    10:00 +19°C° 0 mm 6 m/s 760 mmHg 84%
    11:00 +19°C° 0 mm 6 m/s 760 mmHg 82%
    12:00 +20°C° 0 mm 6 m/s 760 mmHg 79%
    13:00 +20°C° 0 mm 6 m/s 760 mmHg 78%
    14:00 +20°C° 0 mm 5 m/s 760 mmHg 77%
    15:00 +21°C° 0 mm 5 m/s 760 mmHg 75%
    16:00 +20°C° 0 mm 4 m/s 760 mmHg 77%
    17:00 +20°C° 0 mm 4 m/s 760 mmHg 78%
    18:00 +20°C° 0 mm 3 m/s 761 mmHg 79%
    19:00 +19°C° 0 mm 3 m/s 761 mmHg 82%
    20:00 +18°C° 0 mm 2 m/s 761 mmHg 85%
    21:00 +17°C° 0 mm 2 m/s 761 mmHg 87%
    22:00 +17°C° 0 mm 2 m/s 761 mmHg 88%
    23:00 +17°C° 0 mm 2 m/s 761 mmHg 88%

    19 Août, Dimanche

    Heure Température Précipitation Vent Pression Humidité
    00:00 +17°C° 0 mm 3 m/s 760 mmHg 89%
    01:00 +17°C° 0,2 mm 3 m/s 760 mmHg 90%
    02:00 +17°C° 0,2 mm 4 m/s 759 mmHg 91%
    03:00 +17°C° 0,2 mm 4 m/s 759 mmHg 92%
    04:00 +16°C° 0,8 mm 5 m/s 758 mmHg 92%
    05:00 +17°C° 0,8 mm 6 m/s 757 mmHg 92%
    06:00 +17°C° 0,8 mm 6 m/s 757 mmHg 92%
    07:00 +17°C° 0,9 mm 6 m/s 757 mmHg 92%
    08:00 +19°C° 0,9 mm 6 m/s 757 mmHg 92%
    09:00 +19°C° 0,9 mm 6 m/s 757 mmHg 92%
    10:00 +19°C° 0,3 mm 6 m/s 757 mmHg 91%
    11:00 +19°C° 0,3 mm 6 m/s 757 mmHg 91%
    12:00 +19°C° 0,3 mm 6 m/s 757 mmHg 90%
    13:00 +20°C° 0 mm 6 m/s 757 mmHg 89%
    14:00 +20°C° 0 mm 6 m/s 758 mmHg 88%
    15:00 +20°C° 0 mm 6 m/s 758 mmHg 87%
    16:00 +20°C° 0 mm 6 m/s 758 mmHg 87%
    17:00 +20°C° 0 mm 5 m/s 758 mmHg 88%
    18:00 +20°C° 0 mm 5 m/s 759 mmHg 88%
    19:00 +20°C° 0 mm 5 m/s 759 mmHg 89%
    20:00 +19°C° 0 mm 5 m/s 759 mmHg 90%
    21:00 +19°C° 0 mm 4 m/s 760 mmHg 91%
    22:00 +19°C° 0,1 mm 4 m/s 760 mmHg 92%
    23:00 +19°C° 0,1 mm 5 m/s 760 mmHg 92%

    20 Août, Lundi

    Heure Température Précipitation Vent Pression Humidité
    00:00 +19°C° 0,1 mm 5 m/s 760 mmHg 93%
    01:00 +19°C° 0,1 mm 5 m/s 760 mmHg 93%
    02:00 +19°C° 0,1 mm 5 m/s 760 mmHg 93%
    03:00 +19°C° 0,1 mm 6 m/s 760 mmHg 93%
    04:00 +17°C° 0,1 mm 6 m/s 760 mmHg 92%
    05:00 +17°C° 0,1 mm 6 m/s 760 mmHg 92%
    06:00 +17°C° 0,1 mm 5 m/s 760 mmHg 91%
    07:00 +17°C° 0 mm 6 m/s 760 mmHg 89%
    08:00 +17°C° 0 mm 6 m/s 761 mmHg 87%
    09:00 +19°C° 0 mm 6 m/s 761 mmHg 85%
    10:00 +19°C° 0 mm 6 m/s 761 mmHg 84%
    11:00 +19°C° 0 mm 6 m/s 761 mmHg 83%
    12:00 +20°C° 0 mm 6 m/s 761 mmHg 81%
    13:00 +20°C° 0,1 mm 6 m/s 762 mmHg 80%
    14:00 +20°C° 0,1 mm 5 m/s 762 mmHg 78%
    15:00 +20°C° 0,1 mm 5 m/s 762 mmHg 77%
    16:00 +20°C° 0 mm 5 m/s 762 mmHg 77%
    17:00 +20°C° 0 mm 4 m/s 762 mmHg 78%
    18:00 +19°C° 0 mm 4 m/s 762 mmHg 78%
    19:00 +18°C° 0 mm 3 m/s 763 mmHg 82%
    20:00 +18°C° 0 mm 3 m/s 763 mmHg 85%
    21:00 +17°C° 0 mm 2 m/s 763 mmHg 89%
    22:00 +17°C° 0 mm 2 m/s 763 mmHg 90%
    23:00 +16°C° 0 mm 2 m/s 763 mmHg 91%
    Voir plus